Hazte SocioAcceso socios

METEO en el Aeródromo de Mutxamel (LEMU)

Horarios

ESTAMOS EN UTC +2

ORTO: 04:52 (UTC)
OCASO: 19:24 (UTC)

Previsión en los próximos días en Windy

METAR del Aeropuerto de Alicante (LEAL)

LEAL 161300Z 10010KT 060V150 CAVOK 30/23 Q1015 NOSIG

TAF del Aeropuerto de Alicante (LEAL)

TAF LEAL 161100Z 1612/1712 09008KT CAVOK TX33/1613Z TN22/1706Z TEMPO 1613/1618 09018G30KT TEMPO 1620/1701 BKN012 BECMG 1623/1701 VRB03KT BECMG 1706/1708 09010KT

Otros enlaces útiles

Renuncia de responsabilidad

La información meteorológica ofrecida en esta página es un servicio de cortesía del Club Deportivo ANR, basado en varias fuentes, y en ningún caso constituye una información oficial. Es responsabilidad del piloto al mando obtener la información meteorológica actualizada desde fuentes oficiales.

En España, la información meteorológica oficial la ofrece la Agencia Española de Meteorología en general y en particular, a través de su Autoservicio Meteorológico Aeronáutico.

Partida Almaina núm 92. 03110 Mutxamel (Alicante).España
info@clubdeportivoanr.com
Inscrito en registro EDCV número 11003/1
Inscrito en la RFAE número C-701
Asociado al Real Aero Club de España
Consulte nuestra política de privacidad